Flag for U.S.A. Weather past 2 weeks in French Lick, Indiana, U.S.A.

57 °F


Feels Like: 55 °F
Forecast: 57 / 63 °F
Wind: 10 mph from South

Location: Huntingburg Airport

Current Time: Nov 27, 2015 at 9:30:54 AM

Latest Report: Nov 27, 2015 at 8:55 AM

Visibility: 10 mi

Pressure: 30.36 "Hg

Humidity: 72%

Dew point: 48 °F

Location of French LickLocation

Historic Weather in French Lick — Graph


French Lick temperature yesterday

Maximum temperature yesterday: 66 °F (at 2:55 PM)
Minimum temperature yesterday: 54 °F (at 12:35 AM)
Average temperature yesterday: 58 °F

Past Weeks' High & Low Weather Summary

High66 °F (Nov 18, 1:55 AM)93% (Nov 16, 7:35 PM)30.51 "Hg (Nov 16, 7:35 PM)
Low23 °F (Nov 22, 11:55 PM)26% (Nov 20, 1:35 PM)29.63 "Hg (Nov 18, 12:35 PM)
Average47 °F61%30.20 "Hg
* Reported Nov 12 8:15 AM — Nov 27 8:35 AM, French Lick, Weather by CustomWeather, © 2015

Note: Actual official high and low records may vary slightly from our data, if they occured in-between our weather recording intervals... More about our weather records


French Lick weather history for previous 24 hours

Time TempWeatherWind HumidityBarometerVisibility
8:35 AM
Fri, Nov 27
57 °FPassing clouds.10 mph72%30.35 "Hg10 mi
8:15 AM57 °FScattered clouds.9 mph72%30.35 "Hg10 mi
7:55 AM57 °FPassing clouds.10 mph72%30.35 "Hg10 mi
7:35 AM57 °FClear.9 mph72%30.35 "Hg10 mi
7:15 AM57 °FClear.9 mph72%30.35 "Hg10 mi
6:55 AM57 °FPassing clouds.8 mph72%30.35 "Hg10 mi
6:35 AM57 °FPassing clouds.8 mph72%30.34 "Hg10 mi
6:15 AM57 °FClear.10 mph72%30.34 "Hg10 mi
5:55 AM57 °FClear.10 mph67%30.34 "Hg10 mi
5:35 AM57 °FPassing clouds.13 mph67%30.33 "Hg10 mi
5:15 AM59 °FPassing clouds.15 mph63%30.33 "Hg10 mi
4:55 AM59 °FClear.16 mph63%30.33 "Hg10 mi
4:35 AM59 °FClear.16 mph63%30.33 "Hg10 mi
4:15 AM59 °FClear.16 mph63%30.33 "Hg10 mi
3:55 AM61 °FClear.18 mph59%30.33 "Hg10 mi
3:35 AM59 °FClear.17 mph63%30.33 "Hg10 mi
3:15 AM61 °FPassing clouds.16 mph59%30.34 "Hg10 mi
2:55 AM61 °FPassing clouds.14 mph59%30.34 "Hg10 mi
1:35 AM61 °FPassing clouds.14 mph59%30.33 "Hg10 mi
1:15 AM61 °FClear.18 mph59%30.34 "Hg10 mi
12:55 AM61 °FPassing clouds.14 mph59%30.34 "Hg10 mi
12:35 AM61 °FPassing clouds.18 mph59%30.35 "Hg10 mi
11:55 PM
Thu, Nov 26
61 °FClear.14 mph59%30.34 "Hg10 mi
10:55 PM61 °FClear.12 mph59%30.35 "Hg10 mi
10:35 PM61 °FClear.8 mph59%30.37 "Hg10 mi
10:15 PM61 °FClear.7 mph59%30.38 "Hg10 mi
9:55 PM61 °FClear.9 mph59%30.37 "Hg10 mi
9:35 PM61 °FClear.8 mph59%30.38 "Hg10 mi
9:15 PM61 °FClear.8 mph59%30.38 "Hg10 mi
8:55 PM61 °FClear.8 mph59%30.38 "Hg10 mi
8:35 PM61 °FClear.8 mph59%30.38 "Hg10 mi
8:15 PM61 °FClear.7 mph59%30.38 "Hg10 mi
7:55 PM61 °FClear.8 mph59%30.38 "Hg10 mi
7:15 PM61 °FClear.9 mph59%30.37 "Hg10 mi
6:55 PM61 °FClear.9 mph59%30.37 "Hg10 mi
6:35 PM63 °FClear.8 mph56%30.37 "Hg10 mi
5:55 PM63 °FClear.8 mph56%30.37 "Hg10 mi
5:15 PM63 °FSunny.9 mph56%30.36 "Hg10 mi
4:55 PM64 °FSunny.7 mph52%30.37 "Hg10 mi
4:35 PM66 °FSunny.13 mph49%30.38 "Hg10 mi
3:55 PM66 °FSunny.14 mph52%30.38 "Hg10 mi
3:35 PM66 °FSunny.13 mph49%30.38 "Hg10 mi
3:15 PM66 °FPartly sunny.18 mph52%30.38 "Hg10 mi
2:55 PM66 °FOvercast.12 mph49%30.39 "Hg10 mi
2:35 PM64 °FMostly cloudy.17 mph52%30.40 "Hg10 mi
1:55 PM63 °FMostly cloudy.16 mph56%30.41 "Hg10 mi
1:35 PM63 °FOvercast.15 mph52%30.43 "Hg10 mi
1:15 PM61 °FOvercast.18 mph55%30.44 "Hg10 mi
12:55 PM59 °FOvercast.18 mph59%30.45 "Hg10 mi
12:35 PM59 °FMostly cloudy.18 mph55%30.46 "Hg10 mi
11:55 AM57 °FMostly cloudy.16 mph59%30.49 "Hg10 mi
11:35 AM57 °FOvercast.14 mph59%30.49 "Hg10 mi
11:15 AM57 °FMore clouds than sun.16 mph59%30.49 "Hg10 mi
10:55 AM55 °FMore clouds than sun.10 mph55%30.50 "Hg10 mi
10:35 AM55 °FOvercast.9 mph55%30.50 "Hg10 mi
10:15 AM54 °FOvercast.9 mph58%30.51 "Hg10 mi
9:55 AM54 °FOvercast.10 mph58%30.51 "Hg10 mi
9:35 AM54 °FMostly cloudy.10 mph58%30.50 "Hg10 mi
9:15 AM54 °FOvercast.12 mph58%30.50 "Hg10 mi
Weather by CustomWeather, © 2015

See weather overviewHow to use our weather pages